Wind_Speed
34 33 33 32 32 30 29 27 26 25 24 23 22 22 21 21 20 20 19 19 18 17 16 15 14 13 13 12 11 10 10 9 9 9 10 10 10 11 11 11 11 12 12 12 12 12 12 13 13 14 14 15 15 15 15 16 16 17 17 18 18 18 18 18 17 18 19 19 19 18 16 15 13 11 10 9 9 9 10 12 11 11 10 10 9 9 9 9
35 35 34 34 33 32 31 29 28 26 25 24 24 23 23 22 22 21 21 20 19 18 17 16 15 15 14 13 12 12 11 10 10 10 11 12 12 13 13 13 13 14 14 14 14 14 15 15 16 16 16 16 17 17 17 17 18 18 19 19 19 19 19 19 19 19 20 20 19 17 16 15 14 12 11 10 10 10 10 12 12 12 12 11 11 11 11 11
36 36 35 35 34 33 32 31 29 28 27 26 25 24 24 24 23 22 22 21 20 20 19 18 17 16 15 15 14 13 12 12 11 12 13 13 13 14 15 15 15 15 16 16 16 16 16 17 17 17 18 18 18 18 18 18 19 19 19 20 20 20 21 21 21 20 20 19 18 17 15 15 14 13 13 12 11 12 12 12 12 13 13 13 13 13 13 13
36 36 36 35 34 34 33 32 31 30 29 28 27 26 26 25 24 24 23 23 22 21 20 19 18 18 17 16 15 14 14 13 13 13 13 14 15 15 16 16 17 17 17 17 18 18 18 18 18 18 19 19 19 19 19 20 20 20 21 21 21 21 22 22 21 20 19 19 18 16 15 14 14 14 15 14 13 13 13 13 12 13 14 14 15 14 15 15
37 36 36 35 35 34 34 33 32 31 30 29 28 28 27 26 26 25 25 24 23 23 22 21 20 19 19 18 17 16 15 14 14 14 14 15 15 16 17 18 18 18 19 19 19 19 19 19 19 19 19 19 19 20 20 21 21 21 21 21 21 21 21 21 21 20 19 18 17 16 15 14 14 15 16 16 16 15 15 15 13 13 14 14 15 15 15 16
37 37 37 36 35 35 35 34 33 33 32 31 30 29 29 28 27 27 26 26 25 24 23 23 22 21 20 20 19 18 17 16 15 15 15 15 16 17 18 19 19 20 20 20 20 20 20 20 19 19 19 20 20 21 22 22 22 21 21 21 20 20 20 20 20 20 19 18 17 16 15 15 15 15 17 18 18 17 16 17 15 14 15 14 15 15 16 16
38 38 37 37 36 36 36 35 35 34 33 32 31 31 30 29 29 28 28 27 27 26 25 24 23 23 22 22 21 20 19 17 17 17 16 17 17 17 18 19 20 21 21 21 21 21 20 20 20 20 20 21 22 22 22 22 22 21 21 21 21 21 21 21 21 20 20 18 17 17 16 16 15 16 18 19 19 19 18 18 17 17 16 16 15 15 15 16
40 39 38 38 37 37 37 36 36 36 35 34 33 33 32 31 30 30 29 29 28 27 27 26 25 25 24 24 23 22 21 19 18 19 18 18 18 19 19 20 21 21 21 22 21 21 21 21 21 21 22 22 23 23 23 23 22 22 22 22 22 22 22 21 21 21 20 19 18 18 18 18 17 18 19 20 20 20 19 19 19 18 18 17 16 15 15 16
41 40 40 39 39 38 38 38 37 37 36 36 35 34 34 33 32 32 31 31 30 29 28 28 27 27 26 25 25 24 23 21 20 20 20 20 20 20 20 21 22 22 22 22 22 22 22 22 22 23 23 24 24 24 24 24 23 23 22 22 22 22 22 22 21 21 20 19 19 20 20 20 20 20 20 21 22 21 20 19 20 20 19 18 17 16 16 17
43 42 42 41 40 40 39 39 39 38 38 37 37 36 35 35 34 33 33 32 32 31 30 30 29 28 28 27 26 26 25 23 22 22 22 22 21 21 22 22 23 23 23 23 23 23 23 23 24 24 24 25 26 25 25 24 23 23 23 23 23 22 22 22 22 21 21 21 21 22 22 22 22 22 22 23 23 22 21 20 20 21 21 20 19 18 18 18
45 44 43 43 42 42 41 40 40 40 39 39 38 38 37 36 36 35 35 34 33 33 32 31 31 30 29 29 28 27 27 25 24 24 24 23 23 23 23 23 24 24 24 25 25 25 24 25 25 26 26 26 26 26 25 24 24 24 24 24 23 23 22 22 22 22 21 21 22 24 24 24 24 23 23 23 23 23 22 22 21 21 21 21 20 19 19 19
46 46 45 45 44 43 43 42 42 41 41 40 40 39 39 38 38 37 37 36 35 35 34 34 33 32 31 30 29 29 29 27 26 26 25 25 25 25 25 25 25 26 26 26 26 26 26 26 27 27 27 27 27 26 25 25 25 25 25 24 24 24 23 23 23 22 22 22 23 25 25 25 24 23 23 24 23 23 23 22 21 21 22 22 22 21 21 21
48 47 47 46 46 45 45 44 44 43 43 42 42 41 41 40 40 39 39 38 37 37 36 36 35 34 34 32 31 31 30 29 28 28 28 28 27 27 26 26 27 27 27 27 27 27 28 28 28 29 28 28 27 26 26 25 26 26 26 26 25 25 25 23 23 23 23 23 25 26 27 26 24 23 24 23 23 23 22 22 21 21 21 22 22 23 23 22
49 49 48 48 47 47 46 46 46 45 45 44 44 43 43 42 42 41 41 40 39 39 38 38 37 37 36 34 32 33 32 32 31 30 30 30 29 29 28 28 29 29 29 29 29 29 29 30 30 30 29 28 27 27 26 26 26 27 27 27 26 27 27 24 23 24 24 25 27 27 28 27 22 21 24 23 23 23 22 22 21 21 21 22 23 23 23 23
49 49 49 49 49 48 48 47 47 47 46 46 45 45 45 44 44 43 43 42 41 41 40 40 39 39 38 36 34 34 34 34 33 33 33 32 31 31 30 30 30 30 31 31 31 31 31 31 31 30 29 28 28 27 27 27 27 28 28 28 26 27 28 24 23 26 26 26 28 27 27 27 23 21 24 23 23 23 22 22 22 22 22 22 23 23 24 24
50 50 50 50 50 49 49 48 48 48 47 47 47 47 46 46 46 45 45 44 43 43 42 42 41 41 40 37 36 36 36 36 36 35 34 34 33 32 32 32 32 32 33 33 33 33 33 32 32 31 29 28 28 28 29 29 28 29 29 29 27 26 27 26 25 27 28 27 27 27 27 27 24 23 24 24 24 24 24 24 24 23 24 23 23 24 25 26
52 51 51 51 50 50 50 50 49 49 49 48 48 48 48 48 47 47 46 46 46 45 45 44 43 42 42 39 38 37 38 38 38 37 37 36 35 34 34 34 34 35 35 35 35 34 34 34 33 32 30 29 28 29 31 30 30 31 30 28 27 26 27 28 27 26 28 29 28 28 27 27 26 24 26 25 25 26 25 26 26 26 26 26 25 25 26 26
54 53 52 52 52 51 51 51 50 50 50 50 49 49 49 49 49 49 48 48 48 47 47 46 44 44 43 42 40 39 40 40 40 39 39 38 37 36 36 36 36 37 37 37 37 36 36 35 34 33 30 29 29 31 32 32 32 32 29 26 27 28 28 30 29 26 28 30 29 29 28 28 28 26 27 27 27 27 28 28 29 29 28 28 27 27 27 27
56 55 54 54 54 53 52 52 52 52 51 51 51 51 51 51 51 51 50 50 49 48 48 47 46 46 45 44 42 41 41 42 41 41 41 40 39 39 38 38 39 39 39 39 38 38 37 36 36 33 30 29 31 33 35 34 33 31 30 28 28 29 28 30 30 27 29 31 30 31 30 30 31 29 28 29 29 29 29 29 30 29 29 28 28 28 27 27
58 57 56 56 55 55 54 54 53 53 53 53 52 52 52 52 52 53 52 51 50 50 50 49 48 48 47 46 44 43 43 43 43 43 43 42 41 41 41 41 41 41 41 41 40 39 39 39 36 32 31 32 33 34 36 35 32 31 31 30 30 30 28 30 30 28 31 33 31 32 33 31 32 33 30 29 31 31 29 30 29 29 28 28 28 28 28 28
60 59 59 58 57 57 56 55 55 54 54 54 54 53 54 54 54 54 53 53 52 52 52 51 50 49 49 48 47 46 46 46 45 45 44 43 43 44 43 43 43 43 42 42 42 40 41 40 35 32 33 35 35 35 35 34 32 32 32 32 32 30 29 30 32 31 33 35 33 34 35 32 32 35 32 29 32 32 30 29 28 28 27 27 27 27 28 28
62 61 60 60 59 59 58 57 56 55 55 55 55 54 54 54 55 55 55 55 55 54 53 53 52 51 50 49 49 48 48 48 46 46 45 45 46 46 45 45 44 44 43 43 43 42 42 40 36 34 35 36 35 35 34 33 34 34 34 34 33 31 30 32 34 34 35 37 36 35 36 33 32 35 33 30 32 32 30 30 28 27 27 26 27 27 28 28
63 62 62 62 61 61 60 58 57 57 56 56 55 55 55 56 56 56 56 57 57 55 55 55 54 53 53 52 51 50 50 49 48 47 47 47 48 47 46 45 44 44 43 41 41 41 41 39 36 36 35 35 35 34 34 35 36 35 35 35 33 32 32 34 36 36 36 38 39 37 38 35 32 35 33 31 32 31 29 29 28 27 27 27 28 28 28 28
64 64 63 63 63 63 62 61 59 58 57 56 55 56 56 56 56 57 58 59 60 58 56 56 56 55 55 53 52 52 51 50 50 49 48 49 49 48 46 44 43 43 40 39 39 39 39 37 34 34 33 33 34 34 35 36 37 36 36 35 34 33 34 37 38 38 37 39 39 39 41 37 32 35 34 30 32 30 28 29 29 28 28 28 28 28 28 28
63 63 63 64 64 65 65 64 62 60 59 57 56 57 57 57 57 57 58 60 63 61 58 57 57 57 56 55 54 54 53 52 51 50 49 49 48 46 45 43 42 42 39 38 39 38 38 37 32 31 33 34 35 36 36 37 38 38 37 34 34 36 37 39 40 40 40 42 39 38 43 40 34 35 34 30 31 30 28 29 29 29 28 28 28 27 27 27
64 62 62 62 64 65 66 65 63 63 62 59 58 58 58 57 57 58 58 61 66 65 61 58 58 58 58 57 56 54 55 55 52 51 50 49 46 44 43 42 41 41 39 38 38 39 39 36 32 32 34 36 37 38 37 36 37 39 38 34 34 38 39 40 41 41 42 44 42 39 42 43 38 35 32 31 32 31 29 30 30 30 29 28 28 28 28 28
66 64 63 62 62 63 64 64 64 63 62 62 61 61 60 59 58 59 58 61 68 68 64 61 60 61 60 57 55 55 56 55 50 49 48 46 44 43 43 42 41 40 40 39 40 41 40 37 36 36 37 38 39 38 36 35 37 40 39 35 36 39 41 41 42 43 44 46 46 42 40 43 41 36 32 32 34 32 30 31 31 31 30 29 29 29 29 30
66 66 65 64 62 62 63 63 63 63 64 64 64 64 63 61 61 60 58 62 69 69 66 64 61 61 61 59 57 56 56 53 48 46 45 43 43 42 43 43 41 40 40 40 41 42 40 38 38 38 39 39 38 36 35 35 38 41 39 38 39 40 41 42 43 45 46 47 49 44 40 42 43 38 33 33 34 31 30 31 32 32 31 30 30 30 30 31
66 67 66 65 64 63 63 64 63 64 66 66 66 66 65 65 64 61 61 65 69 68 67 65 61 59 59 59 57 55 54 52 49 47 44 43 44 43 42 42 41 40 40 40 41 42 41 38 37 38 39 39 37 36 36 37 39 41 40 40 41 42 42 44 45 46 48 50 49 44 40 41 43 41 37 32 32 31 31 33 34 32 31 31 31 31 31 31
62 64 65 64 63 64 64 65 64 65 67 67 67 67 66 67 65 63 66 67 66 66 67 65 61 57 57 57 56 53 52 51 50 48 47 45 45 44 44 43 43 43 41 42 43 42 41 39 39 39 39 39 38 37 38 39 40 41 42 42 43 43 44 45 46 47 50 51 48 43 40 41 44 45 40 32 29 32 33 33 33 33 32 31 31 31 31 31
57 59 60 59 58 61 64 66 65 67 68 68 68 68 68 68 67 68 69 65 62 65 65 63 60 57 56 56 54 53 52 51 50 49 48 47 45 45 45 44 43 43 43 43 43 42 42 41 42 41 40 40 40 40 41 41 42 42 43 43 44 45 46 47 48 49 50 50 48 44 41 43 46 46 41 34 30 31 33 32 32 33 32 31 31 30 30 31
56 57 58 57 56 57 61 64 67 70 71 70 70 71 70 70 71 72 68 61 62 65 62 60 58 58 58 56 54 53 52 51 49 48 48 46 45 44 43 43 42 43 45 45 44 43 44 44 44 43 43 43 42 42 42 42 43 43 44 45 45 47 49 50 50 50 50 49 48 46 43 45 48 45 41 38 32 29 30 31 31 32 31 31 30 30 30 31
58 57 56 57 57 57 57 60 67 73 73 72 73 73 72 74 75 72 67 63 65 65 60 59 59 59 58 56 53 52 51 50 49 48 47 46 46 46 44 44 44 44 45 46 45 46 47 47 46 45 45 43 42 43 43 43 44 45 46 47 48 49 51 53 52 51 50 49 49 47 46 48 49 44 40 37 34 29 28 29 30 31 31 31 31 31 31 32
58 58 56 55 56 57 57 58 63 70 73 75 75 75 76 77 74 69 67 67 68 66 63 63 64 62 60 57 53 51 50 50 49 48 48 48 48 48 46 45 45 44 45 47 48 47 48 49 48 47 46 44 43 44 45 46 47 47 48 50 51 51 51 51 51 51 52 52 51 50 49 50 49 44 39 36 34 30 28 28 29 31 32 32 32 32 32 32
52 55 55 54 55 55 55 58 61 67 74 77 78 79 81 78 71 66 66 69 69 68 66 66 67 66 64 61 56 53 52 51 50 49 49 49 49 50 48 47 46 45 45 47 49 48 48 50 50 49 47 47 47 47 48 50 50 51 51 53 54 51 48 50 51 51 52 54 53 52 51 50 48 45 40 36 33 31 30 30 30 31 32 33 32 32 32 34
46 48 50 49 48 48 50 54 62 69 75 78 81 83 81 73 67 66 68 69 70 69 67 67 68 67 66 63 59 56 54 52 51 50 50 50 51 51 51 49 47 47 48 48 49 50 50 52 53 51 50 50 50 49 51 52 53 54 54 55 53 48 47 50 52 51 52 54 55 53 51 47 45 44 41 36 32 30 31 32 31 31 30 30 31 33 35 37
43 45 48 47 42 41 42 46 59 71 75 79 84 83 75 68 67 68 69 70 71 69 68 68 68 66 66 64 61 57 56 55 53 52 51 51 52 51 51 50 49 49 49 49 49 50 52 55 55 54 54 53 52 51 53 54 55 56 55 53 50 48 48 50 51 52 52 54 54 52 50 46 44 43 39 34 32 32 32 32 31 31 30 31 33 35 37 39
44 44 49 50 44 40 40 41 52 66 72 76 81 80 73 67 66 67 68 70 71 69 68 68 68 67 66 65 63 61 59 58 56 55 54 54 53 52 52 53 52 51 51 50 50 51 51 53 55 55 55 55 53 54 55 56 55 54 53 51 49 49 49 48 49 50 50 51 51 50 50 47 44 42 37 33 33 34 33 32 31 31 32 34 35 37 39 40
47 47 50 51 46 44 44 42 44 55 65 73 77 76 71 68 67 68 70 71 71 69 68 67 66 68 67 66 66 65 63 62 59 58 58 57 56 54 54 55 55 54 53 52 51 51 50 51 53 55 54 53 54 55 56 55 52 50 50 50 48 47 46 45 46 46 45 48 49 48 49 48 43 39 36 34 35 36 35 33 32 33 34 35 37 39 41 42
51 51 52 51 49 47 46 46 46 51 58 65 70 71 69 68 70 71 71 71 72 71 70 67 65 67 67 66 67 67 65 65 63 61 60 59 57 55 54 55 55 55 55 54 53 53 52 52 53 54 53 53 53 54 52 50 49 48 48 48 46 43 42 43 45 43 43 46 47 48 49 48 44 38 36 36 37 36 36 36 36 36 37 38 40 42 44 44
57 56 55 53 51 49 47 53 58 57 58 58 60 64 68 71 72 71 70 70 73 74 71 70 69 69 69 69 69 69 68 68 67 65 63 60 58 57 56 56 57 57 58 58 57 56 55 54 53 53 54 53 52 51 48 48 48 46 46 46 45 41 41 43 45 44 43 44 45 47 50 49 47 42 39 39 38 37 38 39 39 39 39 40 42 44 46 45
62 61 58 56 54 51 51 58 60 59 59 55 51 56 64 69 72 74 73 71 71 71 70 71 71 70 71 71 71 72 71 71 70 69 66 63 60 60 59 59 59 59 60 60 60 59 58 56 54 55 56 55 53 51 48 48 48 47 48 48 45 43 43 44 45 44 44 44 45 48 52 51 49 45 43 41 39 39 40 41 41 41 41 42 44 46 46 45
65 63 61 59 58 54 55 58 60 61 60 54 52 55 58 61 65 71 75 75 73 72 71 70 69 69 69 69 71 73 72 71 72 71 70 69 66 64 64 63 61 60 61 61 60 59 59 58 56 56 57 56 55 53 50 49 50 51 50 47 44 44 43 43 43 43 45 47 46 48 53 53 50 46 44 42 41 41 42 43 43 43 42 44 46 47 46 46
64 64 63 63 61 58 58 59 61 63 59 55 57 58 56 57 61 64 69 74 77 78 77 76 74 73 73 72 74 76 75 75 75 76 76 75 72 70 67 64 62 61 61 60 58 58 57 56 55 54 55 56 56 56 54 52 50 48 45 43 43 43 42 41 42 42 47 49 47 48 52 52 49 47 45 42 41 42 44 45 46 45 44 45 47 47 46 47
63 63 65 65 64 63 62 61 61 61 58 57 60 59 57 59 61 60 62 65 69 74 76 76 75 75 75 75 75 76 77 77 76 76 76 74 72 70 67 64 61 60 60 59 59 60 59 57 55 54 55 56 57 56 52 48 46 45 44 43 43 42 42 43 42 44 50 52 50 52 53 50 48 48 46 45 44 45 46 47 47 47 48 49 49 48 48 48
62 64 65 66 64 64 64 64 63 63 61 61 62 61 61 61 60 60 62 62 62 63 64 64 65 66 67 67 67 67 68 69 68 68 69 68 68 67 65 62 59 59 59 58 58 59 58 57 55 55 56 56 55 52 49 46 47 47 47 46 45 45 45 46 47 50 53 53 53 53 52 50 50 50 50 48 48 48 48 48 48 49 51 52 51 51 52 53
64 64 65 64 63 63 64 65 67 66 63 62 62 61 61 59 58 61 64 63 60 59 59 60 61 63 62 60 61 62 62 62 62 61 61 62 64 64 64 62 60 58 57 56 55 54 55 57 55 55 56 54 53 52 51 51 52 51 50 50 50 49 49 51 54 53 51 54 55 53 51 52 52 52 53 53 52 51 50 50 51 51 52 52 53 55 57 59
66 65 64 63 64 64 63 64 66 66 64 64 64 62 61 58 58 61 61 59 60 61 61 62 63 62 60 59 61 62 61 61 61 59 58 59 61 62 62 61 61 59 56 55 54 53 54 55 53 54 55 53 52 53 53 53 55 55 54 54 53 54 55 57 58 55 52 56 58 55 55 57 56 56 57 57 57 56 54 54 54 54 53 54 56 59 61 62
67 66 65 65 65 66 64 62 62 64 65 66 65 64 63 60 56 55 54 55 58 60 60 60 60 59 59 60 62 63 61 61 60 57 57 58 59 60 60 61 62 60 58 56 54 53 53 51 49 52 54 53 53 54 54 55 57 58 58 58 57 58 60 61 60 57 57 59 58 58 60 61 60 60 60 59 59 59 59 59 58 56 56 57 60 62 64 64
67 67 67 67 67 66 67 66 63 62 65 67 67 66 66 64 59 53 52 54 57 58 59 59 57 56 59 61 63 63 61 59 59 58 58 58 58 59 60 61 61 59 58 57 55 54 54 52 51 52 55 55 55 55 56 57 58 59 60 60 59 61 63 63 61 58 59 61 59 60 63 63 63 63 61 60 61 61 63 63 59 57 58 60 62 64 66 66
67 67 68 70 70 68 68 71 70 66 64 65 65 65 65 64 61 57 56 57 56 55 57 57 54 53 56 58 61 61 58 57 59 59 59 60 60 59 59 60 59 58 57 57 55 55 55 54 54 55 58 57 55 56 58 59 60 61 62 61 62 64 65 64 61 60 61 62 61 62 64 64 64 63 62 62 63 64 64 62 59 59 60 62 64 66 66 64
68 69 69 71 73 71 70 73 75 73 71 66 62 59 58 58 56 55 56 56 55 53 54 53 52 53 55 56 57 57 55 56 59 59 59 60 59 59 60 59 59 59 58 57 56 55 55 55 55 58 61 60 57 59 60 61 64 66 63 61 62 64 66 66 64 62 62 63 63 64 64 64 63 63 63 65 65 64 63 62 61 61 62 64 65 65 64 63
Wind_Direction
198 197 196 196 197 198 199 200 201 202 203 204 205 205 204 203 203 204 203 203 203 202 203 203 204 203 203 203 204 205 208 213 218 222 227 229 229 230 231 231 231 233 234 236 239 243 247 251 256 260 263 268 272 275 278 281 284 286 288 289 289 290 290 291 292 295 297 298 299 297 294 288 281 274 272 280 291 295 297 297 297 298 300 300 296 292 286 282
199 198 198 198 198 199 200 202 203 204 206 207 208 208 207 207 207 207 207 207 207 207 207 209 209 209 210 211 211 212 214 218 223 228 232 235 236 237 238 239 239 239 241 243 246 249 252 256 260 264 267 271 274 277 280 282 284 286 287 287 288 288 288 289 290 292 293 293 293 292 288 283 277 271 268 273 283 288 291 293 294 295 296 295 293 291 287 283
200 200 200 200 201 201 202 203 205 206 208 209 210 211 210 210 211 211 211 211 211 212 212 213 214 215 216 217 218 219 221 225 229 232 235 238 240 241 242 243 244 245 246 248 250 253 256 259 263 266 270 273 276 279 281 283 284 284 285 286 286 287 287 288 289 290 290 289 288 285 281 276 272 269 269 272 280 287 289 289 290 292 293 292 289 287 284 281
202 202 203 203 204 205 206 206 207 209 210 211 212 213 213 214 214 215 215 215 216 216 217 217 218 220 222 223 224 225 228 231 235 238 241 243 244 245 245 246 247 248 250 252 254 256 258 261 264 268 271 274 277 279 282 283 284 284 284 285 286 286 287 288 288 289 288 286 284 280 275 270 267 267 270 275 281 287 289 287 286 286 286 287 286 284 281 279
205 205 206 206 207 208 209 210 211 212 213 214 215 216 216 217 218 218 219 220 220 221 221 221 222 224 226 227 229 230 233 237 242 246 248 249 250 250 249 249 250 250 252 253 255 257 259 262 264 267 271 274 278 281 284 285 285 284 284 284 285 286 287 287 288 288 286 284 281 277 272 266 264 266 270 276 282 287 290 288 285 280 278 277 277 276 275 275
208 208 209 210 211 212 212 213 214 215 216 217 218 219 220 221 221 222 223 223 224 225 225 225 226 228 230 231 233 234 237 241 247 251 254 256 255 254 253 252 251 252 253 254 255 257 259 262 264 267 271 275 280 284 287 287 286 285 284 284 284 285 286 286 286 286 285 283 279 275 270 265 263 264 269 276 282 288 290 289 287 283 278 273 268 266 265 265
211 211 212 213 214 215 215 216 217 217 218 219 220 221 223 224 225 226 227 227 228 228 229 229 229 231 233 234 236 237 240 244 249 254 257 260 261 259 257 254 254 254 254 255 256 258 260 262 265 267 271 277 282 287 288 287 285 284 283 283 283 283 283 284 284 284 283 281 278 275 270 266 264 264 267 274 281 286 287 287 286 284 282 277 269 262 256 254
214 215 215 216 216 217 218 218 219 220 220 221 222 223 225 226 227 229 230 231 231 231 232 232 233 234 235 237 239 241 243 245 250 255 260 262 264 262 260 258 256 255 255 256 257 258 260 262 265 269 274 280 285 288 288 286 284 283 283 283 282 282 282 281 281 281 280 279 277 274 271 268 266 265 268 274 279 282 283 283 283 282 281 278 273 263 253 248
217 218 218 218 219 219 220 220 221 221 222 223 224 225 227 228 229 231 232 233 234 234 235 235 236 237 238 240 242 244 246 247 251 256 261 264 265 264 262 260 258 257 257 257 258 259 261 264 267 271 276 282 286 288 287 285 283 282 282 282 282 281 280 279 277 276 276 276 275 273 271 270 269 268 271 275 277 279 280 280 280 280 278 276 272 264 256 251
221 221 221 221 222 221 222 222 223 223 224 225 226 227 228 230 231 232 234 235 236 237 237 238 239 239 240 242 244 247 249 251 253 257 261 265 266 266 264 261 259 258 258 258 259 260 262 265 269 273 278 283 286 286 285 283 282 282 282 281 281 280 278 277 275 273 273 273 272 271 271 271 271 272 275 276 277 279 279 278 277 277 276 275 271 264 259 257
224 224 224 224 224 224 224 224 224 225 226 226 227 229 230 231 233 234 235 236 238 239 240 240 241 242 243 244 246 248 251 253 255 259 262 265 268 268 266 263 260 259 259 259 260 262 264 267 271 275 280 283 285 284 283 281 280 280 281 281 281 279 276 275 274 274 273 273 272 272 271 271 272 275 276 277 278 280 279 278 277 276 275 274 270 265 261 260
226 226 226 226 226 226 226 226 227 227 228 229 229 230 231 233 234 235 236 237 239 240 241 242 243 244 245 246 248 250 253 255 257 260 263 266 268 269 267 264 262 260 260 260 261 264 266 269 273 277 281 283 283 282 280 279 279 279 280 281 280 278 275 274 274 274 275 274 274 273 273 273 274 276 277 278 279 279 279 279 278 276 274 272 269 265 262 263
229 228 228 228 228 228 228 228 229 229 230 231 231 232 232 233 235 236 237 238 239 241 242 243 244 245 246 247 249 251 254 256 258 261 263 266 267 268 267 265 262 261 260 261 263 265 268 272 275 279 282 282 282 280 278 277 278 278 279 279 278 277 274 273 274 275 276 276 274 274 275 274 275 278 278 277 278 278 278 279 278 276 274 271 267 264 263 265
231 231 230 230 230 230 231 231 231 231 232 232 233 233 234 234 235 236 238 239 240 241 243 244 245 246 247 248 250 252 254 257 259 261 263 265 267 267 267 265 262 261 261 262 264 266 270 273 276 279 281 281 280 278 277 277 276 277 277 277 276 275 274 274 275 275 275 274 273 273 275 276 277 276 275 276 276 276 277 276 275 273 271 269 266 264 263 264
232 233 233 233 232 232 232 233 233 233 234 235 235 235 235 236 236 237 238 240 241 242 243 245 246 247 248 248 250 253 255 257 259 262 264 265 267 267 266 264 262 262 262 263 265 268 271 274 277 279 279 279 278 277 277 276 275 276 276 274 272 272 275 276 274 274 273 272 272 272 273 275 276 275 273 275 276 276 277 276 274 271 268 266 264 261 260 262
233 234 234 234 234 234 235 235 235 235 236 236 237 237 237 237 238 239 240 240 242 243 244 245 247 248 249 249 251 253 256 258 260 262 264 266 266 266 264 263 262 262 262 264 266 269 272 275 277 277 277 277 277 277 276 276 275 274 271 271 272 272 275 275 272 272 273 270 270 270 271 272 274 273 273 274 275 277 278 278 276 273 270 266 262 259 258 259
232 233 234 235 235 236 236 236 237 237 237 238 238 238 239 239 240 240 241 242 243 244 245 246 248 249 250 250 251 254 256 258 261 263 265 266 265 264 263 262 262 263 264 266 268 270 272 274 275 276 276 276 276 276 276 276 273 270 268 271 274 272 271 272 271 270 271 270 268 268 269 271 271 271 272 273 275 276 278 278 277 275 272 269 265 262 259 260
231 232 233 234 235 236 236 237 237 238 238 239 239 240 240 241 241 241 242 243 243 244 246 247 248 250 250 251 252 254 256 259 261 264 265 265 265 264 263 263 264 264 266 267 269 271 272 273 274 274 275 276 276 275 273 272 270 270 271 270 271 271 270 271 270 267 266 267 268 268 269 271 271 270 271 273 273 274 276 276 275 274 272 271 269 266 264 264
231 231 233 234 235 236 236 237 238 238 239 239 240 241 242 242 242 243 243 244 244 246 247 247 248 250 250 251 253 254 257 259 261 263 264 264 264 264 264 265 265 266 268 269 270 271 272 272 272 273 276 276 273 272 270 269 270 271 272 269 268 269 269 268 267 265 265 265 267 271 271 271 273 272 272 273 274 273 274 273 272 272 272 271 270 269 268 267
231 231 231 233 234 235 236 236 237 238 239 240 240 241 242 243 244 244 244 245 245 247 247 248 248 249 250 252 253 255 257 259 260 262 262 263 264 265 265 266 266 267 268 269 270 270 270 270 271 275 276 272 270 270 269 269 269 269 270 271 270 268 266 264 264 264 267 267 268 271 271 272 274 274 272 273 274 273 273 272 271 272 272 272 271 269 268 268
232 231 231 232 233 234 235 236 237 238 239 240 241 242 243 243 244 245 245 246 246 247 248 248 248 250 251 252 254 255 257 258 259 261 262 263 264 265 266 266 267 267 268 269 269 269 269 270 273 275 272 271 269 267 267 268 268 268 270 271 269 266 264 263 263 265 267 269 270 271 272 272 274 275 274 272 272 273 273 272 272 272 272 272 271 269 268 268
234 233 233 232 233 233 234 234 236 237 239 240 241 242 243 244 245 246 246 246 246 246 247 248 249 250 251 253 255 256 257 258 258 259 261 262 264 265 266 266 267 267 267 267 268 268 269 270 272 271 268 268 266 265 266 267 267 269 270 269 267 265 263 263 264 265 267 271 271 271 272 272 272 273 274 272 270 271 272 272 273 273 272 270 268 267 267 267
235 235 234 234 234 234 234 234 234 236 238 239 241 243 244 244 245 246 247 247 246 246 248 248 249 250 251 252 254 256 256 257 258 259 260 263 264 265 265 265 266 265 265 266 268 268 268 268 268 267 266 264 264 264 265 267 268 269 268 267 266 264 264 266 266 266 268 271 272 273 272 271 272 272 272 271 270 271 271 273 273 272 269 267 265 265 266 266
237 236 235 235 236 236 236 235 235 236 237 238 240 242 243 244 245 246 247 248 247 246 247 249 250 251 251 253 254 255 255 256 258 259 261 263 263 264 264 264 264 264 265 266 267 267 267 266 265 265 264 262 262 264 266 268 269 268 266 265 266 266 266 267 268 269 270 270 272 275 274 271 270 272 272 271 270 271 271 271 271 270 268 266 265 265 265 266
238 237 237 236 237 238 238 237 236 236 237 238 240 241 242 243 245 246 247 248 247 245 245 248 250 251 251 252 253 254 256 257 258 260 261 262 262 263 263 262 263 264 265 266 266 266 265 265 264 263 262 262 263 264 266 267 268 267 265 264 266 268 268 269 271 273 274 272 272 275 276 274 270 270 272 273 272 271 270 269 270 269 267 266 265 265 265 266
238 238 238 237 238 238 239 239 239 238 238 239 240 241 242 243 244 245 247 249 248 245 244 245 248 250 250 251 253 255 257 257 258 259 260 260 261 261 261 261 262 264 265 265 265 264 264 265 264 263 262 262 263 264 264 265 267 266 264 264 266 268 270 271 273 274 275 275 274 273 276 277 273 271 274 274 272 270 269 269 269 268 266 265 264 264 265 266
237 237 238 238 238 239 240 240 240 240 240 240 241 242 242 243 244 245 247 249 249 246 245 244 245 248 250 252 254 255 256 256 257 258 258 259 259 259 260 261 261 262 263 263 263 263 264 265 264 262 262 262 263 264 264 264 265 265 266 267 267 268 270 272 274 275 275 277 275 274 277 278 275 275 276 272 270 270 270 269 268 266 265 263 262 262 263 264
237 237 238 238 239 240 240 240 240 241 241 241 241 242 242 243 243 244 246 248 248 248 247 245 244 247 250 252 252 253 255 257 256 256 256 257 257 257 258 259 259 259 260 261 262 263 263 263 264 264 263 263 263 264 264 263 264 266 268 269 268 269 271 273 275 276 276 276 275 275 279 279 276 277 276 271 271 272 271 268 266 264 264 262 261 262 262 264
239 238 238 238 238 240 241 241 240 240 241 241 241 241 241 242 242 243 245 246 247 249 250 249 246 246 248 250 251 252 254 256 255 255 254 254 255 256 257 258 259 258 259 261 262 263 263 263 264 263 263 263 263 263 263 263 264 266 268 269 270 271 273 275 275 276 277 274 273 277 280 280 278 276 275 274 275 274 269 267 267 265 263 261 262 263 264 265
237 238 238 239 240 241 242 242 241 241 241 241 241 241 240 241 241 242 242 244 247 249 251 251 249 247 247 248 250 251 252 254 255 255 254 254 254 256 256 257 259 259 260 260 262 264 265 265 263 262 263 264 263 263 263 263 264 267 269 270 272 274 274 275 275 275 275 273 274 279 282 281 277 274 275 277 276 273 270 269 267 264 262 261 263 265 266 265
236 237 238 241 243 243 243 244 243 241 241 241 241 240 240 240 239 239 242 246 249 251 252 253 253 251 249 248 249 250 251 252 253 254 255 255 254 254 255 257 259 261 261 261 262 264 264 264 263 262 262 262 262 261 262 264 266 268 270 272 274 275 274 274 273 274 275 276 279 281 281 279 275 274 278 279 274 273 273 270 265 262 261 264 266 266 266 266
238 238 239 241 243 243 242 243 243 240 239 239 240 240 240 240 239 240 244 248 249 250 253 254 254 252 250 248 248 248 250 251 252 253 254 255 255 255 255 256 257 259 260 261 262 262 262 262 262 262 261 261 262 263 264 266 268 269 271 272 272 273 273 273 274 275 278 280 282 282 280 276 273 275 279 280 277 275 272 269 264 261 262 264 266 266 267 268
240 240 240 241 243 245 243 242 243 241 240 239 239 239 240 239 241 243 247 248 247 250 252 253 254 253 251 250 248 248 249 250 251 252 253 254 255 255 254 255 256 258 261 263 263 263 263 262 262 263 263 264 264 266 266 266 267 267 268 268 269 271 272 275 277 279 281 281 281 281 279 274 272 274 278 279 279 275 270 266 262 261 263 264 265 267 270 271
239 239 239 239 240 242 243 243 244 244 242 240 239 239 238 240 243 246 247 247 248 249 250 252 254 254 253 252 250 250 250 250 251 251 252 252 253 254 254 256 259 260 262 264 264 264 264 264 264 264 265 265 265 265 265 264 264 265 266 267 268 269 272 277 280 281 281 280 278 277 276 274 274 276 276 276 275 273 271 266 262 262 264 265 267 269 272 272
234 235 235 234 234 237 240 243 244 244 243 241 241 240 240 242 246 248 248 248 248 249 249 251 253 254 254 254 253 253 252 251 251 251 251 252 252 254 255 256 259 260 261 263 265 265 266 266 265 264 263 263 262 262 263 263 264 264 265 266 268 271 275 277 278 278 279 278 276 275 274 275 277 277 275 272 270 271 271 268 265 264 264 266 268 271 272 272
237 237 236 235 234 236 239 241 242 244 245 243 242 242 243 246 248 249 250 250 249 250 251 252 253 255 256 256 255 255 254 252 252 252 252 252 252 253 254 255 257 260 262 264 266 266 267 267 265 264 262 260 260 261 262 263 264 264 265 266 270 272 273 273 274 274 275 275 275 275 276 277 277 274 272 271 270 269 268 268 267 266 265 266 268 270 272 272
243 245 245 242 237 238 241 242 240 240 244 244 244 245 247 248 248 249 250 251 250 250 250 251 253 254 255 256 256 254 254 253 253 254 253 253 253 253 255 257 258 261 263 266 267 266 266 266 265 263 261 259 259 260 262 262 263 264 265 267 270 270 270 270 271 272 273 274 276 276 276 276 273 271 270 272 272 269 266 266 268 268 268 269 271 274 276 277
242 245 247 245 241 242 244 244 240 238 239 241 243 245 247 246 246 249 250 249 248 248 247 248 250 251 252 253 254 254 254 254 254 255 256 256 256 256 256 259 261 262 264 266 267 265 266 267 266 264 261 259 259 259 261 262 263 265 268 269 269 269 269 269 270 272 273 274 274 274 274 273 272 272 273 272 270 269 267 267 268 268 269 272 277 281 283 283
240 241 244 245 243 243 242 242 243 242 240 239 239 243 247 247 246 248 249 248 248 247 246 246 247 250 251 252 254 255 256 257 256 256 258 258 259 258 258 259 260 261 263 267 268 267 267 267 267 264 261 259 258 258 260 262 264 266 267 268 267 267 268 268 267 269 271 272 273 273 273 273 272 274 275 273 270 270 269 269 269 268 269 275 280 285 288 286
241 240 240 241 241 242 243 245 247 248 246 245 243 242 244 247 247 247 248 249 250 249 248 248 247 249 251 253 254 255 256 257 257 256 257 259 260 259 258 259 261 262 265 267 267 266 266 267 267 265 262 259 259 260 262 264 264 264 264 264 264 263 264 264 264 265 265 268 272 274 275 276 275 274 273 274 272 270 270 270 270 269 272 278 282 287 288 285
241 241 240 239 239 238 241 245 247 248 250 252 250 244 242 244 244 245 246 247 249 249 249 249 249 249 251 252 254 255 256 257 257 258 258 259 260 259 259 262 264 264 265 265 265 264 266 268 267 264 262 260 260 261 262 261 259 258 258 258 257 256 256 260 264 266 267 269 274 276 276 275 275 273 272 275 275 272 270 271 271 271 274 278 283 287 287 284
239 240 240 239 239 236 237 242 246 248 250 251 252 249 245 244 243 242 242 242 244 246 246 247 247 248 250 252 253 255 255 257 258 259 260 260 259 260 261 264 265 264 263 263 262 262 263 265 262 259 260 260 260 260 259 257 256 254 253 252 252 253 256 260 266 271 273 274 274 275 273 271 272 273 274 276 275 273 273 274 274 274 275 278 283 286 286 282
239 239 238 238 237 235 236 240 243 247 248 247 251 252 249 246 244 243 242 242 243 245 245 246 246 247 249 251 253 254 255 257 258 260 261 261 260 260 262 263 263 263 262 260 260 260 261 262 261 259 261 262 261 261 258 255 254 254 254 253 255 259 261 264 269 273 275 273 272 272 270 270 272 274 274 274 274 275 277 276 275 274 275 279 283 284 283 282
238 238 237 237 236 234 235 237 241 245 247 246 248 251 250 247 245 244 244 243 244 244 245 247 248 249 250 251 252 255 256 258 259 260 261 261 261 260 260 260 260 260 259 258 258 259 260 261 258 255 258 259 258 257 255 254 256 260 261 260 261 265 266 267 270 273 273 272 270 269 268 270 273 274 274 275 276 277 278 277 276 275 275 278 281 281 281 283
236 236 235 236 236 235 235 235 238 242 246 246 247 249 251 249 247 246 246 245 244 243 245 248 250 251 251 251 252 254 255 256 257 258 258 258 257 257 256 256 256 257 257 257 258 258 258 256 252 251 253 254 256 257 257 259 262 263 261 259 262 265 266 267 268 269 269 269 268 269 271 272 272 273 276 279 279 279 278 277 277 277 277 279 281 281 283 283
234 233 233 234 234 236 236 236 237 239 242 244 245 248 250 250 248 247 247 246 245 245 246 248 248 249 250 250 250 250 252 253 254 255 255 255 254 254 253 252 253 255 256 257 258 257 255 252 250 250 252 253 255 257 257 257 258 258 257 258 260 261 262 264 264 265 268 270 270 272 273 271 271 274 278 279 279 277 276 275 275 276 278 281 283 284 284 283
231 232 232 232 231 232 235 237 238 239 241 244 245 247 249 250 249 248 247 246 246 246 248 248 247 248 249 249 250 250 250 253 254 254 254 254 254 254 252 251 251 254 256 256 255 254 252 250 249 251 252 252 252 253 254 256 256 256 257 257 259 260 260 261 262 266 269 270 271 274 274 272 274 276 277 277 277 276 275 275 276 277 279 281 282 282 282 283
229 231 233 231 229 227 231 237 241 240 240 242 244 245 247 248 248 247 247 246 246 247 249 250 249 248 248 249 250 251 251 252 253 252 253 254 255 254 253 253 254 255 255 254 254 255 253 251 250 250 250 248 247 249 252 255 257 257 257 256 257 259 260 261 264 267 268 269 271 274 273 273 273 273 273 275 276 277 278 278 278 279 279 279 279 279 281 283
226 228 230 231 230 227 227 232 239 242 241 241 242 244 246 247 244 243 243 243 244 245 248 250 250 249 249 250 252 252 251 252 253 253 255 257 257 256 255 255 255 256 255 254 254 255 254 251 250 251 249 245 244 248 252 254 256 257 257 258 259 261 262 263 264 265 266 268 270 272 272 273 274 274 274 276 277 279 280 280 280 278 276 275 277 279 281 281
226 226 228 230 231 230 227 227 233 239 241 241 242 244 247 247 242 238 240 242 243 244 246 249 251 253 254 255 255 254 252 252 254 254 256 259 258 256 255 255 255 255 255 254 254 254 253 250 248 253 253 247 245 250 253 255 256 256 257 258 260 261 262 262 263 265 267 269 271 273 274 274 275 276 277 278 279 279 278 278 277 274 271 273 276 278 278 277
228 226 226 228 230 229 229 227 229 234 239 241 242 242 244 244 240 237 239 241 242 244 246 247 249 253 256 256 256 255 253 254 256 256 258 260 259 256 254 254 254 254 254 255 256 256 255 253 251 255 257 253 251 255 257 258 259 258 256 256 258 260 262 263 264 266 269 271 271 271 272 272 273 275 276 276 276 276 275 274 272 270 270 273 275 275 275 276
229 227 225 227 229 228 228 228 228 231 236 240 242 242 242 240 236 236 239 240 240 244 246 246 247 251 253 253 253 253 253 255 256 257 258 260 259 256 254 253 252 253 254 256 257 257 258 257 256 258 261 260 259 260 261 261 260 258 256 256 258 261 263 265 266 268 271 272 270 269 270 272 272 272 272 272 272 272 272 270 269 268 270 272 274 275 275 276
Height
5834 5836 5838 5839 5841 5843 5844 5846 5847 5848 5849 5851 5852 5853 5854 5855 5856 5857 5858 5859 5859 5860 5861 5862 5862 5863 5864 5864 5865 5866 5866 5867 5867 5867 5868 5868 5868 5869 5869 5869 5869 5870 5870 5871 5871 5871 5872 5872 5872 5872 5872 5872 5872 5873 5872 5872 5872 5872 5872 5871 5871 5870 5870 5870 5870 5869 5869 5868 5868 5867 5867 5868 5868 5868 5868 5869 5869 5868 5868 5867 5866 5866 5866 5865 5865 5865 5865 5864
5832 5834 5836 5837 5839 5841 5842 5844 5845 5846 5848 5849 5850 5851 5852 5853 5854 5855 5856 5857 5858 5859 5860 5861 5861 5862 5863 5864 5864 5865 5865 5866 5866 5867 5867 5867 5867 5868 5868 5868 5868 5869 5869 5870 5870 5870 5871 5871 5871 5871 5871 5871 5871 5871 5871 5871 5871 5870 5870 5869 5869 5868 5868 5868 5868 5868 5867 5867 5866 5866 5866 5866 5866 5867 5867 5867 5868 5867 5867 5866 5865 5865 5865 5864 5864 5863 5863 5863
5830 5832 5834 5836 5837 5839 5840 5842 5843 5844 5846 5847 5848 5849 5850 5851 5852 5854 5855 5856 5857 5857 5858 5859 5860 5861 5862 5862 5863 5864 5864 5865 5865 5865 5866 5866 5866 5867 5867 5867 5867 5868 5868 5868 5869 5869 5869 5869 5870 5870 5869 5869 5869 5870 5870 5869 5869 5869 5868 5868 5867 5867 5866 5866 5866 5866 5866 5865 5865 5865 5864 5864 5865 5865 5865 5866 5866 5866 5866 5866 5865 5864 5863 5863 5862 5862 5861 5861
5828 5830 5832 5834 5835 5837 5838 5840 5841 5842 5844 5845 5846 5847 5849 5850 5851 5852 5853 5854 5855 5856 5857 5858 5859 5859 5860 5861 5862 5862 5863 5863 5864 5864 5865 5865 5865 5865 5865 5866 5866 5866 5867 5867 5867 5868 5868 5868 5868 5868 5868 5868 5868 5868 5868 5868 5867 5867 5867 5866 5866 5865 5864 5864 5864 5864 5864 5864 5863 5863 5863 5863 5863 5863 5863 5864 5864 5864 5864 5864 5864 5863 5862 5862 5861 5861 5860 5859
5826 5828 5830 5831 5833 5835 5836 5838 5839 5840 5842 5843 5844 5845 5847 5848 5849 5850 5851 5852 5853 5854 5855 5856 5857 5858 5858 5859 5860 5861 5861 5862 5862 5863 5863 5863 5863 5864 5864 5864 5864 5865 5865 5866 5866 5866 5866 5866 5867 5866 5866 5866 5866 5866 5866 5866 5866 5865 5865 5864 5864 5863 5863 5862 5862 5862 5862 5862 5862 5862 5862 5862 5862 5862 5862 5862 5862 5863 5862 5862 5862 5862 5862 5861 5860 5859 5859 5858
5823 5825 5827 5829 5831 5832 5834 5835 5837 5838 5840 5841 5842 5843 5844 5846 5847 5848 5849 5850 5851 5852 5853 5854 5855 5856 5856 5857 5858 5859 5859 5860 5861 5861 5861 5862 5862 5862 5862 5863 5863 5863 5863 5864 5864 5864 5865 5865 5865 5865 5865 5865 5865 5864 5864 5864 5864 5863 5863 5863 5862 5862 5861 5860 5860 5860 5860 5860 5860 5860 5860 5860 5861 5861 5860 5860 5860 5860 5861 5860 5860 5860 5860 5860 5859 5858 5858 5857
5821 5823 5824 5826 5828 5830 5831 5833 5834 5836 5837 5839 5840 5841 5842 5843 5844 5846 5847 5848 5849 5850 5851 5852 5853 5853 5854 5855 5856 5856 5857 5858 5859 5859 5859 5860 5860 5860 5861 5861 5861 5861 5862 5862 5862 5863 5863 5863 5863 5863 5863 5863 5863 5863 5862 5862 5862 5861 5861 5861 5861 5860 5859 5859 5858 5858 5858 5858 5858 5858 5858 5859 5859 5859 5859 5859 5859 5859 5859 5858 5858 5858 5858 5858 5857 5857 5856 5856
5818 5820 5822 5823 5825 5827 5828 5830 5832 5833 5835 5836 5837 5838 5840 5841 5842 5843 5844 5845 5846 5848 5848 5849 5850 5851 5852 5853 5854 5854 5855 5856 5857 5857 5857 5858 5858 5858 5859 5859 5859 5859 5860 5860 5860 5861 5861 5861 5861 5861 5861 5861 5861 5860 5860 5860 5859 5859 5859 5859 5858 5858 5857 5857 5857 5856 5856 5856 5856 5856 5856 5857 5857 5857 5857 5857 5857 5857 5857 5857 5856 5856 5855 5855 5855 5855 5855 5854
5815 5817 5819 5820 5822 5824 5826 5827 5829 5830 5832 5833 5834 5836 5837 5838 5839 5840 5842 5843 5844 5845 5846 5847 5848 5849 5850 5850 5851 5852 5853 5854 5855 5855 5855 5856 5856 5856 5857 5857 5857 5858 5858 5858 5858 5859 5859 5859 5859 5859 5859 5859 5859 5858 5858 5857 5857 5857 5857 5856 5856 5856 5855 5855 5855 5854 5854 5854 5854 5854 5854 5854 5855 5855 5856 5856 5855 5855 5855 5855 5854 5854 5853 5853 5853 5853 5853 5852
5812 5814 5816 5817 5819 5821 5823 5824 5826 5827 5829 5830 5831 5833 5834 5835 5836 5838 5839 5840 5841 5842 5843 5844 5845 5846 5847 5848 5849 5849 5850 5851 5852 5853 5853 5853 5854 5854 5855 5855 5855 5855 5856 5856 5856 5857 5857 5857 5857 5857 5857 5857 5857 5856 5855 5855 5855 5855 5854 5854 5854 5853 5853 5853 5852 5852 5853 5853 5852 5852 5852 5852 5853 5853 5853 5853 5853 5853 5853 5853 5852 5852 5851 5851 5851 5851 5851 5850
5808 5810 5812 5814 5816 5818 5820 5821 5823 5824 5826 5827 5828 5830 5831 5832 5833 5835 5836 5837 5838 5840 5841 5842 5843 5844 5844 5845 5846 5847 5847 5849 5850 5850 5851 5851 5851 5852 5852 5853 5853 5853 5853 5854 5854 5854 5855 5855 5855 5855 5855 5855 5854 5854 5853 5853 5853 5852 5852 5851 5851 5851 5851 5850 5850 5850 5850 5851 5850 5849 5849 5850 5850 5850 5851 5850 5850 5850 5850 5850 5850 5849 5849 5849 5848 5849 5848 5848
5804 5806 5808 5810 5812 5814 5816 5818 5819 5821 5822 5824 5825 5826 5828 5829 5830 5831 5833 5834 5835 5836 5838 5839 5840 5841 5842 5843 5844 5844 5845 5846 5847 5848 5848 5849 5849 5849 5850 5850 5850 5851 5851 5851 5852 5852 5852 5852 5852 5852 5853 5852 5852 5851 5851 5851 5850 5850 5849 5849 5849 5848 5848 5848 5848 5848 5848 5848 5848 5846 5846 5847 5848 5848 5848 5848 5847 5847 5847 5847 5847 5847 5847 5846 5846 5846 5846 5846
5800 5802 5804 5806 5808 5810 5812 5814 5816 5817 5819 5820 5822 5823 5824 5825 5827 5828 5829 5830 5832 5833 5834 5835 5837 5838 5839 5840 5841 5841 5842 5843 5844 5845 5845 5846 5846 5847 5847 5848 5848 5848 5848 5849 5849 5849 5850 5850 5850 5850 5850 5850 5849 5849 5848 5848 5848 5847 5847 5846 5846 5845 5845 5846 5846 5845 5845 5845 5845 5844 5843 5844 5845 5846 5845 5845 5844 5844 5844 5844 5844 5844 5844 5844 5844 5844 5844 5844
5796 5798 5800 5802 5804 5806 5808 5810 5812 5814 5815 5817 5818 5819 5821 5822 5823 5824 5826 5827 5828 5829 5831 5832 5833 5834 5835 5837 5838 5838 5839 5840 5841 5842 5842 5843 5843 5844 5844 5845 5845 5845 5846 5846 5846 5847 5847 5847 5847 5847 5847 5847 5847 5846 5846 5846 5845 5844 5844 5844 5844 5843 5842 5843 5844 5843 5843 5842 5842 5841 5840 5840 5842 5843 5842 5842 5842 5841 5841 5841 5841 5841 5841 5841 5841 5841 5841 5842
5792 5794 5796 5798 5800 5802 5804 5806 5808 5810 5811 5813 5814 5815 5817 5818 5819 5821 5822 5823 5825 5826 5827 5828 5829 5831 5832 5834 5835 5835 5836 5837 5837 5838 5839 5840 5841 5841 5841 5842 5842 5842 5843 5843 5843 5844 5844 5844 5844 5844 5844 5844 5844 5843 5843 5843 5843 5842 5842 5841 5841 5840 5839 5841 5841 5840 5840 5840 5839 5839 5838 5837 5839 5840 5839 5839 5839 5838 5839 5838 5838 5838 5838 5838 5838 5838 5839 5839
5787 5789 5791 5793 5796 5798 5800 5801 5803 5805 5807 5808 5810 5812 5813 5814 5815 5817 5818 5819 5821 5822 5823 5824 5826 5827 5828 5831 5832 5832 5833 5833 5834 5835 5836 5837 5837 5838 5838 5838 5839 5839 5839 5840 5840 5840 5841 5841 5841 5841 5841 5841 5841 5841 5839 5839 5840 5839 5839 5838 5839 5839 5837 5837 5838 5837 5836 5836 5836 5836 5836 5835 5836 5837 5836 5836 5836 5836 5836 5835 5835 5835 5835 5835 5835 5835 5835 5835
5781 5784 5786 5788 5791 5793 5795 5797 5799 5801 5802 5804 5806 5807 5809 5810 5811 5813 5814 5815 5817 5818 5819 5820 5822 5823 5825 5827 5829 5829 5829 5830 5830 5831 5832 5833 5834 5834 5834 5835 5835 5835 5836 5836 5837 5837 5837 5837 5837 5837 5838 5838 5838 5837 5836 5836 5837 5836 5836 5837 5837 5837 5836 5834 5835 5835 5833 5833 5833 5833 5833 5833 5833 5834 5834 5833 5833 5833 5833 5833 5832 5832 5832 5832 5832 5832 5832 5833
5776 5779 5781 5783 5786 5788 5790 5792 5794 5796 5798 5800 5801 5803 5804 5806 5807 5808 5810 5811 5812 5814 5815 5817 5818 5819 5821 5823 5825 5825 5826 5826 5827 5828 5828 5829 5830 5830 5831 5831 5832 5832 5832 5833 5833 5834 5834 5834 5834 5834 5835 5836 5835 5834 5832 5832 5832 5832 5834 5835 5834 5834 5833 5832 5831 5832 5831 5830 5830 5830 5831 5830 5830 5831 5831 5831 5831 5831 5830 5830 5829 5829 5829 5829 5829 5830 5830 5830
5771 5773 5776 5778 5780 5782 5785 5787 5789 5791 5793 5795 5797 5798 5800 5801 5802 5804 5805 5806 5808 5810 5811 5813 5814 5815 5816 5818 5820 5822 5822 5823 5823 5824 5824 5825 5826 5826 5827 5828 5828 5828 5829 5829 5830 5830 5830 5830 5830 5831 5833 5833 5831 5829 5828 5828 5829 5830 5830 5831 5832 5831 5831 5829 5828 5829 5828 5826 5827 5827 5827 5827 5827 5827 5828 5828 5827 5827 5827 5827 5826 5826 5826 5826 5827 5827 5827 5827
5765 5768 5770 5772 5774 5777 5779 5782 5784 5786 5788 5790 5792 5794 5795 5796 5797 5798 5800 5802 5804 5805 5806 5808 5809 5810 5812 5814 5816 5817 5818 5819 5819 5820 5820 5821 5822 5823 5823 5824 5824 5824 5825 5825 5825 5826 5826 5825 5827 5829 5829 5828 5827 5826 5825 5825 5826 5827 5827 5827 5828 5828 5828 5826 5825 5826 5824 5823 5824 5824 5823 5824 5824 5823 5824 5825 5823 5823 5824 5823 5823 5823 5823 5823 5823 5824 5824 5823
5760 5762 5765 5767 5769 5770 5773 5776 5778 5780 5783 5785 5787 5788 5789 5791 5792 5793 5796 5797 5799 5800 5801 5803 5805 5806 5808 5809 5811 5813 5813 5814 5815 5815 5816 5817 5817 5818 5819 5819 5820 5820 5821 5821 5821 5822 5821 5821 5825 5826 5824 5823 5823 5822 5821 5822 5823 5823 5823 5823 5824 5825 5825 5823 5822 5822 5821 5819 5821 5821 5819 5821 5821 5819 5820 5822 5820 5819 5820 5819 5820 5820 5820 5820 5820 5820 5820 5820
5754 5757 5759 5761 5763 5764 5767 5770 5772 5775 5777 5779 5782 5783 5784 5786 5786 5788 5790 5791 5793 5795 5796 5798 5800 5801 5803 5805 5806 5807 5808 5809 5811 5812 5812 5813 5813 5813 5814 5815 5816 5816 5817 5816 5817 5817 5817 5818 5821 5821 5820 5819 5818 5818 5819 5819 5819 5819 5820 5819 5820 5821 5821 5819 5818 5818 5817 5816 5816 5817 5816 5817 5818 5815 5816 5818 5816 5816 5816 5816 5816 5816 5816 5816 5816 5816 5816 5817
5748 5751 5754 5756 5758 5759 5761 5764 5766 5769 5772 5774 5776 5777 5778 5780 5781 5782 5784 5784 5787 5790 5791 5793 5795 5796 5798 5800 5801 5802 5803 5805 5806 5807 5808 5808 5808 5809 5810 5811 5811 5811 5812 5813 5813 5813 5812 5814 5816 5816 5815 5815 5815 5815 5815 5815 5815 5816 5816 5815 5816 5817 5817 5815 5813 5814 5814 5812 5812 5812 5811 5813 5815 5812 5812 5814 5812 5813 5813 5812 5813 5813 5813 5812 5812 5813 5813 5813
5741 5744 5747 5750 5751 5753 5756 5758 5762 5765 5766 5768 5770 5771 5772 5774 5775 5776 5777 5778 5780 5784 5787 5788 5790 5791 5793 5795 5797 5797 5798 5800 5801 5803 5804 5804 5804 5805 5806 5807 5807 5806 5808 5809 5809 5808 5808 5809 5811 5812 5812 5812 5811 5811 5812 5811 5811 5811 5812 5812 5812 5813 5812 5811 5809 5810 5810 5808 5808 5808 5805 5808 5812 5809 5808 5810 5809 5809 5809 5809 5809 5809 5809 5809 5808 5809 5809 5809
5735 5737 5740 5743 5745 5747 5749 5752 5758 5760 5761 5763 5764 5764 5766 5768 5769 5771 5772 5771 5772 5777 5782 5783 5784 5785 5788 5790 5791 5791 5793 5795 5796 5799 5800 5799 5800 5801 5801 5803 5802 5802 5805 5805 5804 5804 5804 5805 5808 5808 5808 5808 5807 5808 5808 5807 5807 5807 5807 5809 5809 5808 5807 5807 5806 5805 5805 5803 5805 5805 5800 5802 5807 5806 5805 5807 5805 5805 5806 5805 5805 5805 5805 5805 5805 5805 5805 5806
5727 5731 5733 5736 5738 5741 5743 5748 5753 5754 5755 5757 5756 5758 5761 5762 5764 5765 5766 5764 5763 5769 5776 5779 5780 5779 5782 5784 5786 5787 5787 5789 5792 5794 5794 5794 5796 5797 5797 5798 5799 5799 5800 5800 5800 5800 5800 5802 5804 5804 5804 5803 5803 5803 5804 5804 5803 5802 5802 5806 5806 5804 5803 5802 5802 5801 5800 5797 5799 5801 5798 5795 5800 5802 5803 5803 5801 5801 5802 5801 5801 5801 5800 5801 5801 5801 5801 5802
5720 5723 5726 5729 5732 5735 5738 5743 5747 5748 5750 5750 5750 5752 5755 5756 5757 5759 5761 5758 5756 5761 5767 5773 5775 5774 5776 5779 5782 5782 5780 5783 5789 5789 5789 5790 5792 5792 5792 5793 5795 5795 5795 5795 5795 5795 5797 5798 5799 5799 5799 5799 5799 5800 5801 5801 5799 5797 5799 5802 5802 5800 5799 5798 5797 5796 5795 5793 5791 5795 5796 5791 5792 5797 5799 5798 5796 5797 5798 5797 5797 5796 5796 5797 5797 5797 5797 5797
5713 5716 5719 5722 5726 5729 5732 5736 5740 5741 5742 5743 5744 5746 5748 5749 5751 5754 5754 5751 5750 5754 5758 5764 5769 5770 5772 5774 5776 5776 5775 5779 5784 5784 5785 5786 5786 5787 5788 5788 5790 5790 5790 5790 5790 5791 5793 5794 5794 5795 5794 5794 5796 5797 5797 5797 5794 5793 5795 5797 5796 5796 5795 5794 5793 5791 5791 5788 5785 5790 5794 5788 5786 5791 5794 5793 5793 5794 5794 5792 5792 5792 5792 5793 5792 5793 5793 5793
5707 5709 5712 5716 5719 5722 5725 5729 5733 5734 5734 5735 5737 5738 5740 5741 5744 5746 5745 5743 5747 5750 5750 5756 5763 5766 5767 5768 5770 5772 5772 5775 5777 5779 5781 5781 5781 5782 5783 5784 5784 5785 5786 5786 5786 5786 5788 5790 5791 5791 5790 5790 5792 5793 5793 5792 5791 5790 5791 5791 5791 5791 5791 5790 5789 5787 5785 5782 5781 5786 5790 5786 5782 5783 5787 5790 5790 5790 5790 5788 5788 5788 5788 5788 5788 5789 5789 5789
5700 5703 5705 5708 5712 5716 5719 5722 5727 5728 5727 5728 5729 5730 5732 5733 5737 5738 5734 5738 5746 5745 5744 5748 5755 5761 5763 5763 5765 5767 5769 5770 5772 5774 5774 5775 5777 5778 5778 5779 5779 5780 5781 5781 5781 5782 5784 5786 5786 5786 5786 5787 5788 5789 5788 5788 5787 5787 5787 5787 5786 5786 5786 5784 5783 5782 5779 5776 5778 5784 5785 5782 5778 5775 5780 5787 5787 5784 5784 5785 5785 5784 5784 5784 5784 5785 5785 5785
5693 5696 5698 5701 5706 5710 5712 5715 5720 5721 5719 5720 5721 5721 5723 5725 5727 5725 5726 5737 5744 5739 5739 5744 5749 5754 5757 5759 5760 5762 5763 5765 5767 5768 5768 5770 5772 5772 5774 5775 5775 5775 5776 5777 5777 5779 5780 5780 5780 5782 5782 5782 5783 5783 5783 5783 5783 5783 5783 5782 5782 5781 5780 5778 5777 5776 5774 5772 5775 5779 5780 5777 5772 5771 5776 5781 5782 5780 5780 5781 5781 5780 5780 5780 5781 5781 5781 5781
5687 5689 5691 5695 5699 5702 5704 5708 5712 5710 5708 5712 5713 5712 5715 5715 5712 5715 5726 5738 5737 5732 5734 5739 5742 5746 5748 5752 5754 5756 5757 5759 5762 5763 5764 5765 5766 5768 5769 5770 5771 5770 5770 5772 5773 5774 5774 5775 5775 5776 5777 5778 5778 5778 5779 5779 5779 5779 5778 5777 5777 5775 5773 5772 5771 5771 5771 5771 5771 5772 5773 5770 5767 5770 5772 5773 5776 5777 5776 5776 5776 5776 5776 5777 5777 5777 5777 5778
5681 5683 5685 5689 5691 5694 5698 5700 5701 5699 5701 5705 5703 5703 5706 5701 5701 5714 5727 5731 5727 5726 5732 5734 5735 5737 5740 5744 5748 5751 5753 5754 5757 5758 5759 5760 5761 5763 5764 5764 5766 5766 5766 5767 5768 5768 5768 5769 5770 5771 5772 5774 5774 5774 5774 5774 5774 5774 5773 5771 5771 5770 5767 5766 5767 5767 5766 5766 5766 5766 5765 5762 5762 5767 5769 5769 5770 5771 5772 5772 5772 5772 5772 5773 5773 5773 5774 5774
5674 5676 5679 5682 5684 5687 5690 5692 5693 5694 5695 5695 5692 5693 5692 5689 5700 5717 5722 5721 5720 5723 5727 5728 5727 5730 5732 5737 5742 5745 5747 5749 5751 5753 5753 5755 5755 5757 5759 5760 5762 5763 5762 5761 5761 5763 5763 5763 5765 5767 5768 5769 5769 5769 5768 5767 5768 5767 5767 5766 5765 5765 5764 5763 5763 5762 5760 5760 5760 5759 5758 5757 5758 5762 5765 5765 5765 5766 5767 5768 5768 5768 5769 5769 5769 5770 5770 5770
5667 5669 5672 5675 5677 5681 5684 5685 5687 5687 5685 5684 5683 5681 5679 5686 5703 5714 5713 5713 5714 5716 5722 5722 5721 5722 5725 5730 5735 5739 5741 5743 5745 5747 5747 5749 5751 5752 5754 5756 5757 5758 5758 5756 5756 5758 5757 5757 5759 5761 5763 5763 5763 5763 5761 5761 5761 5761 5761 5759 5758 5762 5763 5760 5758 5757 5755 5753 5752 5752 5752 5753 5755 5757 5759 5760 5761 5762 5762 5763 5764 5764 5765 5765 5766 5766 5766 5766
5660 5662 5664 5667 5672 5676 5677 5678 5680 5679 5677 5676 5671 5667 5674 5691 5703 5705 5705 5708 5709 5712 5717 5717 5716 5717 5719 5723 5728 5731 5733 5736 5739 5740 5742 5744 5745 5747 5749 5750 5752 5752 5753 5753 5752 5752 5751 5750 5751 5754 5756 5756 5757 5757 5756 5755 5755 5754 5754 5754 5755 5759 5758 5754 5752 5752 5750 5746 5745 5746 5748 5750 5751 5751 5753 5755 5757 5758 5757 5757 5758 5759 5760 5761 5761 5762 5762 5761
5653 5655 5656 5661 5667 5669 5669 5672 5674 5672 5670 5667 5660 5661 5676 5691 5696 5696 5700 5702 5703 5707 5711 5710 5711 5713 5714 5716 5720 5724 5726 5728 5731 5733 5735 5737 5739 5742 5744 5745 5747 5748 5748 5748 5746 5747 5746 5743 5744 5747 5748 5749 5751 5750 5750 5749 5748 5747 5749 5751 5752 5752 5751 5749 5747 5746 5745 5741 5740 5741 5742 5744 5745 5745 5749 5752 5752 5753 5753 5752 5753 5754 5754 5755 5756 5756 5756 5756
5648 5650 5650 5656 5661 5662 5663 5666 5665 5664 5664 5659 5652 5659 5675 5684 5687 5690 5693 5693 5694 5699 5703 5704 5705 5707 5708 5709 5711 5715 5717 5719 5723 5726 5727 5730 5732 5736 5739 5739 5741 5742 5742 5741 5739 5741 5741 5738 5737 5739 5740 5742 5744 5743 5743 5742 5743 5744 5745 5746 5747 5745 5744 5744 5742 5740 5740 5737 5736 5737 5736 5737 5739 5741 5745 5748 5748 5747 5747 5748 5749 5749 5749 5749 5750 5750 5750 5751
5641 5642 5644 5651 5655 5656 5657 5658 5657 5655 5653 5649 5647 5657 5671 5678 5682 5683 5682 5683 5687 5690 5693 5697 5700 5700 5700 5703 5704 5707 5710 5712 5716 5718 5719 5722 5725 5729 5732 5732 5733 5735 5735 5734 5733 5735 5735 5733 5731 5732 5734 5735 5736 5736 5736 5738 5740 5741 5740 5740 5740 5738 5738 5738 5736 5737 5736 5732 5732 5732 5730 5731 5735 5738 5741 5742 5742 5742 5742 5743 5744 5744 5744 5744 5745 5745 5744 5745
5633 5633 5638 5647 5650 5650 5652 5652 5648 5644 5642 5642 5645 5657 5667 5670 5673 5675 5675 5678 5680 5682 5686 5692 5695 5693 5694 5698 5698 5699 5703 5704 5707 5710 5712 5715 5718 5721 5723 5724 5726 5728 5728 5727 5728 5728 5727 5726 5725 5725 5727 5728 5728 5730 5733 5735 5735 5735 5733 5733 5733 5734 5733 5731 5731 5732 5732 5729 5728 5727 5724 5725 5728 5732 5735 5736 5736 5738 5738 5738 5739 5739 5739 5739 5739 5739 5739 5739
5627 5626 5633 5642 5642 5645 5647 5642 5636 5634 5635 5639 5644 5654 5661 5661 5663 5667 5670 5673 5672 5674 5680 5684 5686 5687 5689 5691 5691 5693 5696 5697 5698 5702 5705 5709 5711 5713 5716 5718 5719 5720 5720 5720 5721 5722 5721 5720 5720 5718 5719 5721 5723 5726 5728 5727 5727 5728 5727 5726 5727 5728 5728 5726 5725 5727 5727 5726 5726 5723 5719 5719 5721 5725 5728 5730 5731 5733 5733 5733 5733 5734 5734 5733 5733 5733 5733 5732
5618 5620 5630 5635 5634 5638 5638 5631 5629 5628 5629 5637 5644 5649 5652 5653 5656 5659 5662 5665 5665 5669 5673 5674 5678 5681 5682 5684 5685 5686 5688 5690 5691 5694 5697 5702 5705 5706 5709 5710 5711 5712 5712 5712 5714 5716 5714 5713 5712 5711 5712 5714 5716 5719 5720 5720 5720 5720 5719 5719 5721 5722 5723 5722 5721 5722 5722 5722 5722 5720 5714 5712 5716 5720 5722 5724 5725 5726 5727 5727 5728 5728 5728 5728 5728 5727 5727 5726
5608 5616 5624 5625 5625 5630 5628 5623 5623 5622 5625 5636 5640 5639 5642 5646 5650 5653 5655 5657 5660 5664 5666 5667 5671 5675 5677 5680 5679 5678 5680 5683 5685 5687 5691 5694 5697 5700 5702 5703 5703 5704 5704 5705 5708 5709 5707 5705 5706 5706 5706 5708 5710 5712 5713 5712 5712 5711 5713 5716 5717 5718 5719 5719 5718 5717 5716 5715 5716 5715 5709 5707 5711 5715 5717 5718 5719 5720 5720 5721 5722 5722 5723 5722 5722 5721 5720 5720
5603 5611 5614 5614 5617 5620 5617 5616 5617 5617 5624 5633 5630 5629 5635 5639 5641 5644 5647 5649 5653 5657 5657 5660 5665 5668 5670 5673 5671 5671 5674 5676 5678 5681 5683 5685 5688 5691 5693 5695 5696 5696 5696 5699 5701 5702 5700 5699 5700 5700 5700 5700 5701 5702 5703 5705 5706 5708 5711 5714 5713 5714 5715 5714 5714 5712 5709 5708 5710 5707 5704 5705 5707 5709 5710 5712 5714 5714 5714 5714 5714 5715 5716 5717 5716 5715 5714 5714
5596 5600 5603 5606 5608 5608 5608 5612 5614 5615 5621 5624 5622 5624 5629 5630 5633 5638 5640 5641 5644 5648 5650 5653 5658 5659 5660 5663 5664 5665 5666 5668 5671 5673 5673 5675 5678 5681 5684 5686 5688 5689 5690 5692 5693 5693 5692 5691 5692 5693 5693 5693 5693 5695 5699 5703 5705 5705 5706 5707 5708 5709 5708 5707 5708 5706 5701 5701 5702 5700 5700 5703 5703 5702 5704 5706 5708 5708 5707 5707 5707 5707 5708 5708 5708 5708 5708 5707
5586 5588 5592 5597 5598 5598 5602 5607 5608 5609 5614 5616 5615 5619 5621 5623 5628 5632 5631 5633 5637 5641 5644 5647 5650 5650 5650 5653 5656 5658 5659 5661 5663 5664 5665 5668 5669 5672 5675 5678 5680 5682 5683 5684 5685 5685 5684 5683 5685 5686 5687 5688 5690 5692 5695 5697 5697 5698 5699 5700 5701 5701 5701 5700 5699 5697 5695 5696 5695 5695 5697 5698 5698 5698 5699 5700 5701 5701 5700 5700 5700 5701 5701 5700 5700 5700 5699 5699
5574 5577 5583 5589 5591 5591 5594 5598 5599 5602 5608 5609 5609 5613 5615 5617 5622 5622 5622 5627 5632 5635 5637 5638 5639 5640 5643 5648 5650 5651 5654 5655 5654 5657 5660 5661 5662 5664 5666 5669 5672 5674 5676 5677 5676 5677 5676 5675 5679 5681 5681 5685 5687 5686 5687 5688 5688 5690 5692 5692 5693 5694 5693 5691 5688 5690 5693 5690 5688 5691 5694 5693 5693 5694 5693 5692 5693 5693 5693 5693 5693 5694 5694 5694 5693 5692 5691 5691
5565 5569 5576 5581 5583 5583 5587 5592 5593 5597 5602 5602 5602 5606 5607 5609 5613 5613 5616 5623 5625 5626 5627 5627 5630 5635 5639 5643 5643 5642 5645 5646 5647 5652 5654 5655 5656 5657 5658 5661 5664 5667 5669 5669 5669 5670 5669 5669 5674 5674 5674 5680 5681 5679 5681 5681 5681 5682 5683 5684 5686 5686 5684 5682 5681 5686 5688 5683 5682 5687 5687 5686 5687 5688 5687 5686 5686 5686 5688 5688 5687 5687 5688 5687 5685 5683 5683 5683
5557 5563 5569 5572 5573 5576 5583 5588 5588 5589 5593 5594 5595 5598 5599 5602 5607 5609 5612 5616 5616 5618 5620 5620 5624 5631 5633 5634 5633 5633 5637 5639 5642 5647 5649 5648 5649 5651 5652 5654 5656 5659 5661 5662 5663 5664 5661 5664 5669 5667 5666 5672 5674 5672 5675 5675 5673 5674 5674 5676 5679 5678 5676 5674 5675 5680 5679 5675 5679 5681 5678 5678 5679 5679 5681 5680 5680 5681 5681 5680 5681 5681 5680 5678 5676 5676 5675 5676
5550 5556 5561 5563 5565 5570 5577 5581 5580 5580 5584 5585 5586 5591 5594 5596 5602 5605 5607 5607 5608 5612 5614 5615 5621 5625 5624 5625 5624 5624 5631 5636 5638 5641 5642 5641 5642 5645 5646 5646 5649 5652 5652 5654 5657 5656 5654 5658 5661 5659 5658 5662 5667 5667 5667 5666 5666 5667 5668 5670 5672 5670 5667 5666 5669 5673 5671 5670 5675 5674 5670 5672 5672 5671 5674 5675 5674 5674 5673 5673 5673 5673 5672 5671 5669 5668 5668 5668
5544 5549 5552 5554 5557 5563 5567 5571 5573 5573 5575 5576 5579 5586 5588 5590 5597 5600 5599 5598 5602 5605 5607 5610 5616 5618 5616 5615 5615 5618 5627 5631 5631 5632 5633 5632 5634 5638 5638 5638 5642 5644 5644 5646 5648 5648 5648 5651 5654 5652 5649 5654 5662 5661 5658 5659 5658 5657 5660 5665 5665 5661 5658 5659 5664 5667 5666 5667 5669 5666 5664 5666 5666 5665 5667 5668 5666 5666 5665 5665 5666 5665 5665 5664 5662 5661 5661 5661
5535 5539 5544 5545 5547 5552 5557 5560 5563 5564 5566 5569 5574 5579 5581 5585 5591 5591 5588 5590 5595 5598 5600 5604 5609 5609 5606 5606 5609 5615 5622 5623 5621 5624 5625 5625 5626 5629 5629 5630 5633 5634 5636 5638 5639 5640 5641 5643 5646 5646 5641 5647 5655 5652 5650 5651 5645 5643 5653 5660 5660 5656 5652 5652 5656 5660 5661 5661 5660 5658 5659 5660 5659 5659 5660 5659 5658 5658 5658 5658 5658 5658 5658 5657 5655 5655 5655 5654